sat.trackr.live / text

‹ back to catalog

ONEWEB-0322

NORAD 49192 · 2021-083G

PAYLOAD ACTIVE UNKNOWN

§ Identity

Operator
Country
UK
Launch date
2021-09-14
Launch site
TYMSC
Launch vehicle
Mass (kg)
RCS (m²)

Purposes: comms

External: N2YO · Heavens-Above · Gunter

§ Orbital elements

Epoch: 2026-09-19T20:15:34.889184Z

Period
109.63 min
Inclination
87.8915°
Eccentricity
0.0001943
Mean motion
13.13469236 rev/d
Perigee alt
1,208.3 km
Apogee alt
1,211.2 km
Semi-major
7,587.9 km
B*
-2.7363e-4
RAAN
301.3993°
Arg perigee
82.1517°
Mean anomaly
277.9832°
Rev number
24,334

§ Raw data

ONEWEB-03221 49192U 21083G   26262.84415381 -.00000087  00000+0 -27363-3 0  99912 49192  87.8915 301.3993 0001943  82.1517 277.9832 13.13469236243346

JSON: /api/v1/satellites/49192 · /tle

For live sub-satellite position, see the globe view (requires WebGL).

§ Visibility from observer

Set your observer location to see the next 7 days of passes ≥ 10°. The values pass through the URL so the page stays shareable.

No JS? Fill the form by hand. The geolocation button needs JavaScript.